Location: Marcé
(47.5801°N, 0.3280°W)
Time: 20:13:05
(UTC+01:00)

Vanguard 3 - Visible Passes

Search period start: 30 November 2021 00:00
Search period end: 10 December 2021 00:00
Orbit: 509 x 3260 km, 33.3° (Epoch: 30 November)

Date Brightness Start Highest point End Pass type
(mag) Time Alt. Az. Time Alt. Az. Time Alt. Az.
30 Nov 11.1 03:46:02 13° S 03:57:28 24° SE 04:09:14 10° E visible
30 Nov 10.5 05:54:29 10° SW 06:11:19 40° SSE 06:23:28 10° ESE visible
01 Dec 11.3 02:36:58 14° SSE 02:41:54 16° SE 02:50:58 10° ESE visible
01 Dec 10.8 04:41:36 15° SSW 04:55:19 34° SSE 05:08:30 10° E visible
01 Dec 10.3 06:52:19 10° WSW 07:09:27 45° S 07:21:03 10° ESE visible
02 Dec 11.0 03:32:18 22° S 03:39:22 27° SE 03:52:29 10° E visible
02 Dec 10.5 05:36:53 12° SW 05:53:27 43° SSE 06:06:39 10° ESE visible
02 Dec 10.3 07:50:56 10° WSW 08:07:26 45° S 08:18:09 10° ESE visible
03 Dec 11.2 02:22:48 18° SE 02:23:46 18° SE 02:34:39 10° ESE visible
03 Dec 10.7 04:27:23 24° SSW 04:37:16 37° SSE 04:51:33 10° E visible
03 Dec 10.3 06:33:48 10° WSW 06:51:40 47° S 07:04:14 10° ESE visible
04 Dec 10.8 03:17:43 28° SSE 03:21:12 30° SSE 03:35:28 10° E visible
04 Dec 10.4 05:22:18 21° SW 05:35:27 45° SSE 05:49:41 10° ESE visible
04 Dec 10.3 07:32:29 10° WSW 07:49:44 46° S 08:01:21 10° ESE visible
05 Dec 11.1 02:07:56 21° SE 02:07:56 21° SE 02:17:49 10° E visible
05 Dec 10.6 04:12:29 33° S 04:19:06 40° SSE 04:34:25 10° E visible
05 Dec 10.3 06:17:03 14° WSW 06:33:46 49° S 06:47:18 10° ESE visible
06 Dec 10.7 03:02:35 32° SSE 03:02:57 32° SSE 03:18:13 10° E visible
06 Dec 10.4 05:07:08 29° SW 05:17:21 48° S 05:32:34 10° ESE visible
06 Dec 10.3 07:14:07 10° WSW 07:31:53 47° SSW 07:44:24 10° SE visible
07 Dec 11.1 01:52:35 21° ESE 01:52:35 21° ESE 02:00:37 10° E visible
07 Dec 10.4 03:57:08 40° S 04:00:52 43° SSE 04:17:06 10° E visible
07 Dec 10.3 06:01:40 20° WSW 06:15:44 50° S 06:30:12 10° ESE visible
08 Dec 10.7 02:47:03 34° SE 02:47:03 34° SE 03:00:44 10° E visible
08 Dec 10.3 04:51:35 37° SW 04:59:11 49° S 05:15:18 10° ESE visible
08 Dec 10.4 06:56:07 11° WSW 07:13:54 47° SSW 07:27:20 10° SE visible
09 Dec 11.2 01:36:54 20° ESE 01:36:54 20° ESE 01:43:08 10° E visible
09 Dec 10.3 03:41:26 44° SSE 03:42:36 45° SSE 03:59:37 10° E visible
09 Dec 10.3 05:45:58 27° WSW 05:57:36 51° S 06:12:59 10° ESE visible
09 Dec 10.5 07:55:03 10° W 08:11:38 38° SSW 08:23:44 10° SSE visible
